Tracking 18957 objects as of 22-Jan-2018
HD Live streaming from Space Station
objects crossing your sky now

FENGYUN 1C DEB

Track FENGYUN 1C DEB now!
10-day predictions


NORAD ID: 37715
Int'l Code: 1999-025EMG
Perigee: 843.1 km
Apogee: 1,015.5 km
Inclination: 99.2 °
Period: 103.5 minutes
Semi major axis: 7300 km
RCS: 0.001 m2 (small)
Launch date: May 10, 1999
Source: People's Republic of China (PRC)
Launch site: Taiyaun Space Center, China (TSC)

Note: This is SATELLITE DEBRIS
aabbcc
Your satellite tracking list
Your tracking list is empty




NASA's NSSDC Master Catalog

Two Line Element Set (TLE):
1 37715U 99025EMG 18021.94013028 +.00000116 +00000-0 +11861-3 0  9995
2 37715 099.1922 055.3623 0118049 049.8384 068.6428 13.91854197176859
Source of the keplerian elements: AFSPC